This is the latest recevied weather packets stored in our database for station/object K5GTX. If no packets are shown the sender has not sent any weather packets the latest 10 day(s).
| Time | Temp. | Humidity | Pressure | Rain* | Wind** | Luminosity | Snow |
|---|---|---|---|---|---|---|---|
| 1778003930 | 28.33° C | 99% | 1011 hPa | 0 mm | - | 399 W/m² | - |
| 1778003626 | 28.89° C | 99% | 1011.1 hPa | 0 mm | - | 482 W/m² | - |
| 1778003317 | 28.33° C | 99% | 1011.1 hPa | 0 mm | - | 492 W/m² | - |
| 1778003015 | 27.78° C | 99% | 1011.4 hPa | 0 mm | - | 464 W/m² | - |
| 1778002711 | 27.78° C | 99% | 1011.1 hPa | 0 mm | - | 462 W/m² | - |
| 1778002407 | 27.78° C | 99% | 1011.3 hPa | 0 mm | - | 380 W/m² | - |
| 1778002105 | 27.78° C | 99% | 1011.4 hPa | 0 mm | - | 409 W/m² | - |
| 1778001803 | 27.22° C | 99% | 1011.4 hPa | 0 mm | - | 432 W/m² | - |
| 1778001502 | 27.78° C | 99% | 1011.4 hPa | 0 mm | - | 424 W/m² | - |
| 1778001199 | 27.22° C | 99% | 1011.5 hPa | 0 mm | - | 676 W/m² | - |
| 1778000895 | 26.67° C | 99% | 1011.5 hPa | 0 mm | - | 307 W/m² | - |
| 1778000592 | 26.67° C | 99% | 1011.5 hPa | 0 mm | - | 336 W/m² | - |
| 1778000288 | 27.22° C | 99% | 1011.6 hPa | 0 mm | - | 385 W/m² | - |
| 1777999984 | 27.22° C | 99% | 1011.6 hPa | 0 mm | - | 340 W/m² | - |
| 1777999679 | 26.67° C | 99% | 1011.3 hPa | 0 mm | - | 446 W/m² | - |
| 1777999377 | 26.67° C | 99% | 1011.3 hPa | 0 mm | - | 352 W/m² | - |
| 1777999075 | 26.67° C | 99% | 1011.5 hPa | 0 mm | - | 302 W/m² | - |
| 1777998773 | 26.11° C | 99% | 1011.7 hPa | 0 mm | - | 314 W/m² | - |
| 1777998470 | 26.11° C | 99% | 1011.4 hPa | 0 mm | - | 427 W/m² | - |
| 1777998167 | 26.11° C | 99% | 1011.3 hPa | 0 mm | - | 307 W/m² | - |
| 1777997864 | 26.67° C | 99% | 1011.6 hPa | 0 mm | - | 344 W/m² | - |
| 1777997562 | 26.11° C | 99% | 1011.4 hPa | 0 mm | - | 390 W/m² | - |
| 1777997259 | 26.11° C | 99% | 1011.1 hPa | 0 mm | - | 322 W/m² | - |
| 1777996957 | 26.11° C | 99% | 1011.1 hPa | 0 mm | - | 417 W/m² | - |
| 1777996653 | 26.11° C | 99% | 1011 hPa | 0 mm | - | 391 W/m² | - |
* Rain latest hour (hover to see other rain measurements)
** Current wind speed in m/s (hover to see current wind gust speed)